This is the latest recevied weather packets stored in our database for station/object IU0KRR-10. If no packets are shown the sender has not sent any weather packets the latest 10 day(s).
| Time | Temp. | Humidity | Pressure | Rain* | Wind** | Luminosity | Snow |
|---|---|---|---|---|---|---|---|
| 1787952966 | 23.33° C | 49% | 876.5 hPa | - | - | - | - |
| 1787952065 | 23.33° C | 47% | 876.5 hPa | - | - | - | - |
| 1787951163 | 23.89° C | 47% | 876.5 hPa | - | - | - | - |
| 1787950335 | 23.89° C | 47% | 876.4 hPa | - | - | - | - |
| 1787950263 | 23.89° C | 47% | 876.4 hPa | - | - | - | - |
| 1787949363 | 23.89° C | 46% | 876.5 hPa | - | - | - | - |
| 1787948989 | 23.89° C | 46% | 876.8 hPa | - | - | - | - |
| 1787948462 | 23.89° C | 46% | 876.8 hPa | - | - | - | - |
| 1787947629 | 23.89° C | 46% | 876.9 hPa | - | - | - | - |
| 1787947560 | 23.89° C | 46% | 876.9 hPa | - | - | - | - |
| 1787946660 | 23.89° C | 44% | 876.9 hPa | - | - | - | - |
| 1787945760 | 23.89° C | 45% | 876.8 hPa | - | - | - | - |
| 1787944860 | 23.89° C | 45% | 876.7 hPa | - | - | - | - |
| 1787943959 | 23.89° C | 45% | 876.5 hPa | - | - | - | - |
| 1787943092 | 23.89° C | 44% | 876.5 hPa | - | - | - | - |
| 1787943058 | 23.89° C | 44% | 876.5 hPa | - | - | - | - |
| 1787942201 | 23.89° C | 45% | 876.5 hPa | - | - | - | - |
| 1787942158 | 23.89° C | 45% | 876.5 hPa | - | - | - | - |
| 1787941290 | 23.89° C | 50% | 876.4 hPa | - | - | - | - |
| 1787941257 | 23.89° C | 50% | 876.4 hPa | - | - | - | - |
| 1787940356 | 23.89° C | 47% | 876.4 hPa | - | - | - | - |
| 1787939455 | 24.44° C | 45% | 876.2 hPa | - | - | - | - |
| 1787938619 | 25° C | 42% | 876.2 hPa | - | - | - | - |
| 1787938554 | 25° C | 42% | 876.2 hPa | - | - | - | - |
| 1787937654 | 25.56° C | 40% | 876.3 hPa | - | - | - | - |
* Rain since midnight (hover to see other rain measurements)
** Current wind speed in m/s (hover to see current wind gust speed)